カタログに戻る

XINGWANG JISHU SW 10-01

運用中科学VLEO
NORAD 69320·PAYLOAD·🇨🇳 China
この衛星名は、まだ公式ソースで確認されていません。

打ち上げ May 30, 2026 から Xichang Satellite Launch Center

Loading…

次のパス (今後24時間)

TLE

最新Source: Space-Track

元期: Sep 14, 2026, 13:12 UTC

1 69320U 26120A   26257.55000021  .00012926  00000-0  61659-3 0  9996
2 69320  55.0120 351.1825 0011054 152.4709 207.6898 15.19406395 16368

AllMySatでXINGWANG JISHU SW 10-01をリアルタイム追跡

Download on the App Store